Regional Weather Roundup
Issued by NWS Charleston, WV

Home | Current Version | Previous Version | Text Only | Print | Product List | Glossary Off
Versions: 1 2 3 4 5 6 7 8 9 10 11 12 13 14 15 16 17 18 19 20 21 22 23 24 25 26 27 28

000
ASUS41 KRLX 230510
RWRRLX
West Virginia Regional Weather Roundup
National Weather Service Charleston WV
100 AM EDT MON APR 23 2018

Note: "fair" indicates few or no clouds below 12,000 feet with no
significant weather and/or obstructions to visibility.

WVZ003-230600-
Northern Panhandle of West Virginia

CITY           SKY/WX    TMP DP  RH WIND       PRES   REMARKS
WHEELING       FAIR      55  35  47 E14       30.25S
$$

WVZ009-230600-
Northwest West Virginia

CITY           SKY/WX    TMP DP  RH WIND       PRES   REMARKS
PARKERSBURG    FAIR      54  32  43 E6        30.22S
$$

WVZ006-230600-
Western West Virginia

CITY           SKY/WX    TMP DP  RH WIND       PRES   REMARKS
HUNTINGTON     FAIR      59  27  29 E6        30.14F
$$

WVZ015-230600-
West Central West Virginia

CITY           SKY/WX    TMP DP  RH WIND       PRES   REMARKS
CHARLESTON     FAIR      61  41  47 SE6       30.19R
$$

WVZ022-031-230600-
North Central West Virginia

CITY           SKY/WX    TMP DP  RH WIND       PRES   REMARKS
CLARKSBURG     FAIR      57  39  51 E7        30.25R
MORGANTOWN     FAIR      56  39  53 SE9       30.28R
$$

WVZ025-035-042-045-230600-
Southern West Virginia

CITY           SKY/WX    TMP DP  RH WIND       PRES   REMARKS
BECKLEY        FAIR      54  39  57 SE12      30.24R
LOGAN          FAIR      61  39  44 VRB6G15   30.18S
BLUEFIELD      FAIR      53  37  54 SE16G31   30.24S
LEWISBURG      FAIR      54  38  53 S3        30.29S
$$

WVZ047-230600-
Northern Mountains of West Virginia

CITY           SKY/WX    TMP DP  RH WIND       PRES   REMARKS
ELKINS         FAIR      52  39  61 S5        30.28R
$$

WVZ052-230600-
Eastern Panhandle of West Virginia

CITY           SKY/WX    TMP DP  RH WIND       PRES   REMARKS
MARTINSBURG    MOCLDY    52  37  56 CALM      30.36S
PETERSBURG     FAIR      44  40  85 CALM      30.33R
$$




USA.gov is the U.S. government's official web portal to all federal, state and local government web resources and services.